When you browse on this site, cookies collect data to enhance your experience and personalize the content and advertising you see.
Visit our Privacy Policy to learn more. By continuing to use the site, you agree to this use of cookies and data.
  • En España
  • Lista de países
  • Para 7 días
  • Temperatura del agua
  • Mapa Satelital
  • El tiempo en el mapa
  • Informadores
  • user-avatar
    Iniciar sesión

    Tiempo cada hora Bosangoa

    Hoy, 19 Junio, Miércoles

    Tiempo Temperatura Precipitaciones Viento Presión Humedad
    00:00 +21°C° 0 mm 0 mps 711 mmHg 91%
    01:00 +20°C° 0 mm 0 mps 711 mmHg 92%
    02:00 +20°C° 0 mm 0 mps 710 mmHg 93%
    03:00 +20°C° 0 mm 0 mps 710 mmHg 94%
    04:00 +22°C° 0 mm 1 mps 710 mmHg 95%
    05:00 +23°C° 0 mm 1 mps 710 mmHg 92%
    06:00 +23°C° 0 mm 1 mps 711 mmHg 90%
    07:00 +24°C° 0 mm 1 mps 711 mmHg 87%
    08:00 +26°C° 0 mm 1 mps 711 mmHg 81%
    09:00 +28°C° 0 mm 1 mps 712 mmHg 74%
    10:00 +30°C° 0 mm 1 mps 712 mmHg 67%
    11:00 +31°C° 0.3 mm 1 mps 712 mmHg 64%
    12:00 +32°C° 0.3 mm 1 mps 711 mmHg 60%
    13:00 +33°C° 0.3 mm 1 mps 711 mmHg 57%
    14:00 +32°C° 1.3 mm 1 mps 710 mmHg 64%
    15:00 +30°C° 1.3 mm 1 mps 709 mmHg 72%
    16:00 +29°C° 1.3 mm 1 mps 708 mmHg 79%
    17:00 +27°C° 0.1 mm 1 mps 709 mmHg 83%
    18:00 +26°C° 0.1 mm 1 mps 709 mmHg 86%
    19:00 +23°C° 0.1 mm 0 mps 709 mmHg 89%
    20:00 +22°C° 0 mm 0 mps 710 mmHg 90%
    21:00 +22°C° 0 mm 0 mps 710 mmHg 90%
    22:00 +23°C° 0 mm 1 mps 710 mmHg 91%
    23:00 +21°C° 0 mm 0 mps 710 mmHg 91%

    Mañana, 20 Junio, Jueves

    Tiempo Temperatura Precipitaciones Viento Presión Humedad
    00:00 +21°C° 0 mm 0 mps 710 mmHg 92%
    01:00 +21°C° 0 mm 0 mps 710 mmHg 93%
    02:00 +21°C° 0 mm 0 mps 710 mmHg 93%
    03:00 +20°C° 0 mm 0 mps 710 mmHg 93%
    04:00 +20°C° 0 mm 0 mps 710 mmHg 94%
    05:00 +23°C° 0 mm 1 mps 710 mmHg 93%
    06:00 +23°C° 0 mm 1 mps 711 mmHg 91%
    07:00 +24°C° 0 mm 1 mps 711 mmHg 90%
    08:00 +26°C° 0 mm 1 mps 711 mmHg 84%
    09:00 +27°C° 0 mm 1 mps 711 mmHg 77%
    10:00 +29°C° 0 mm 2 mps 712 mmHg 70%
    11:00 +30°C° 0.1 mm 2 mps 711 mmHg 66%
    12:00 +32°C° 0.1 mm 2 mps 710 mmHg 61%
    13:00 +34°C° 0.1 mm 2 mps 710 mmHg 57%
    14:00 +32°C° 0.6 mm 1 mps 709 mmHg 60%
    15:00 +32°C° 0.6 mm 1 mps 709 mmHg 64%
    16:00 +31°C° 0.6 mm 1 mps 708 mmHg 68%
    17:00 +29°C° 0.3 mm 1 mps 709 mmHg 74%
    18:00 +27°C° 0.3 mm 1 mps 709 mmHg 80%
    19:00 +25°C° 0.3 mm 1 mps 709 mmHg 86%
    20:00 +25°C° 0.2 mm 1 mps 710 mmHg 88%
    21:00 +24°C° 0.2 mm 1 mps 710 mmHg 90%
    22:00 +24°C° 0.2 mm 1 mps 710 mmHg 92%
    23:00 +23°C° 0.3 mm 1 mps 710 mmHg 93%

    Pasado mañana, 21 Junio, Viernes

    Tiempo Temperatura Precipitaciones Viento Presión Humedad
    00:00 +23°C° 0.3 mm 1 mps 710 mmHg 94%
    01:00 +23°C° 0.3 mm 1 mps 710 mmHg 95%
    02:00 +23°C° 0.3 mm 1 mps 710 mmHg 95%
    03:00 +23°C° 0.3 mm 1 mps 710 mmHg 96%
    04:00 +22°C° 0.3 mm 1 mps 710 mmHg 97%
    05:00 +23°C° 0.8 mm 2 mps 710 mmHg 96%
    06:00 +23°C° 0.8 mm 2 mps 711 mmHg 96%
    07:00 +23°C° 0.8 mm 2 mps 711 mmHg 95%
    08:00 +25°C° 0.8 mm 2 mps 712 mmHg 90%
    09:00 +27°C° 0.8 mm 3 mps 712 mmHg 85%
    10:00 +28°C° 0.8 mm 3 mps 712 mmHg 81%
    11:00 +28°C° 1.6 mm 3 mps 712 mmHg 80%
    12:00 +29°C° 1.6 mm 3 mps 711 mmHg 79%
    13:00 +29°C° 1.6 mm 3 mps 710 mmHg 78%
    14:00 +29°C° 0.4 mm 3 mps 710 mmHg 77%
    15:00 +29°C° 0.4 mm 3 mps 709 mmHg 75%
    16:00 +29°C° 0.4 mm 3 mps 709 mmHg 74%
    17:00 +28°C° 0 mm 2 mps 709 mmHg 79%
    18:00 +26°C° 0 mm 2 mps 709 mmHg 85%
    19:00 +25°C° 0 mm 1 mps 710 mmHg 91%
    20:00 +24°C° 0 mm 1 mps 710 mmHg 92%
    21:00 +24°C° 0 mm 1 mps 710 mmHg 94%
    22:00 +23°C° 0 mm 2 mps 710 mmHg 95%
    23:00 +23°C° 0 mm 1 mps 710 mmHg 95%

    22 Junio, Sábado

    Tiempo Temperatura Precipitaciones Viento Presión Humedad
    00:00 +22°C° 0 mm 1 mps 710 mmHg 95%
    01:00 +22°C° 0 mm 1 mps 710 mmHg 96%
    02:00 +22°C° 0 mm 1 mps 710 mmHg 96%
    03:00 +22°C° 0 mm 1 mps 710 mmHg 96%
    04:00 +21°C° 0 mm 1 mps 709 mmHg 96%
    05:00 +22°C° 0.1 mm 1 mps 710 mmHg 94%
    06:00 +21°C° 0.1 mm 2 mps 711 mmHg 92%
    07:00 +23°C° 0.1 mm 2 mps 711 mmHg 90%
    08:00 +25°C° 0.1 mm 2 mps 711 mmHg 85%
    09:00 +26°C° 0.1 mm 2 mps 711 mmHg 80%
    10:00 +28°C° 0.1 mm 2 mps 712 mmHg 75%
    11:00 +29°C° 0.3 mm 1 mps 711 mmHg 72%
    12:00 +30°C° 0.3 mm 2 mps 711 mmHg 66%
    13:00 +31°C° 0.3 mm 2 mps 710 mmHg 60%
    14:00 +31°C° 0 mm 2 mps 709 mmHg 61%
    15:00 +31°C° 0 mm 2 mps 709 mmHg 63%
    16:00 +31°C° 0 mm 2 mps 708 mmHg 64%
    17:00 +29°C° 0 mm 2 mps 708 mmHg 71%
    18:00 +27°C° 0 mm 1 mps 709 mmHg 78%
    19:00 +25°C° 0 mm 1 mps 709 mmHg 85%
    20:00 +24°C° 0 mm 1 mps 709 mmHg 87%
    21:00 +24°C° 0 mm 1 mps 709 mmHg 89%
    22:00 +23°C° 0 mm 1 mps 710 mmHg 91%
    23:00 +23°C° 0 mm 1 mps 710 mmHg 92%

    23 Junio, Domingo

    Tiempo Temperatura Precipitaciones Viento Presión Humedad
    00:00 +23°C° 0 mm 1 mps 709 mmHg 92%
    01:00 +23°C° 0 mm 1 mps 709 mmHg 93%
    02:00 +23°C° 0.1 mm 1 mps 709 mmHg 93%
    03:00 +21°C° 0.1 mm 0 mps 709 mmHg 93%
    04:00 +21°C° 0.1 mm 0 mps 710 mmHg 92%
    05:00 +22°C° 0.8 mm 1 mps 710 mmHg 94%
    06:00 +22°C° 0.8 mm 1 mps 710 mmHg 96%
    07:00 +21°C° 0.8 mm 2 mps 711 mmHg 97%
    08:00 +23°C° 0.3 mm 2 mps 711 mmHg 96%
    09:00 +23°C° 0.3 mm 1 mps 711 mmHg 95%
    10:00 +23°C° 0.3 mm 1 mps 711 mmHg 93%
    11:00 +25°C° 0 mm 1 mps 710 mmHg 88%
    12:00 +26°C° 0 mm 2 mps 709 mmHg 82%
    13:00 +27°C° 0 mm 2 mps 709 mmHg 77%
    14:00 +28°C° 0 mm 2 mps 708 mmHg 74%
    15:00 +28°C° 0 mm 2 mps 708 mmHg 72%
    16:00 +29°C° 0 mm 2 mps 707 mmHg 70%
    17:00 +27°C° 0 mm 2 mps 708 mmHg 76%
    18:00 +26°C° 0 mm 1 mps 708 mmHg 82%
    19:00 +24°C° 0 mm 1 mps 708 mmHg 88%
    20:00 +24°C° 0 mm 1 mps 709 mmHg 89%
    21:00 +23°C° 0 mm 1 mps 709 mmHg 90%
    22:00 +23°C° 0 mm 1 mps 709 mmHg 92%
    23:00 +22°C° 0 mm 1 mps 709 mmHg 93%

    24 Junio, Lunes

    Tiempo Temperatura Precipitaciones Viento Presión Humedad
    00:00 +21°C° 0 mm 2 mps 709 mmHg 95%
    01:00 +21°C° 0 mm 2 mps 709 mmHg 96%
    02:00 +21°C° 0 mm 2 mps 709 mmHg 96%
    03:00 +22°C° 0 mm 1 mps 709 mmHg 95%
    04:00 +22°C° 0 mm 1 mps 709 mmHg 95%
    05:00 +23°C° 0 mm 2 mps 709 mmHg 93%
    06:00 +23°C° 0 mm 2 mps 710 mmHg 91%
    07:00 +24°C° 0 mm 2 mps 710 mmHg 89%
    08:00 +25°C° 0 mm 2 mps 710 mmHg 84%
    09:00 +26°C° 0 mm 2 mps 710 mmHg 80%
    10:00 +27°C° 0 mm 3 mps 711 mmHg 75%
    11:00 +28°C° 0.2 mm 3 mps 710 mmHg 72%
    12:00 +29°C° 0.2 mm 3 mps 710 mmHg 68%
    13:00 +30°C° 0.2 mm 2 mps 709 mmHg 65%
    14:00 +29°C° 1 mm 2 mps 709 mmHg 71%
    15:00 +29°C° 1 mm 2 mps 708 mmHg 78%
    16:00 +28°C° 1 mm 2 mps 708 mmHg 84%
    17:00 +26°C° 0 mm 1 mps 708 mmHg 88%
    18:00 +25°C° 0 mm 1 mps 708 mmHg 91%
    19:00 +22°C° 0 mm 0 mps 708 mmHg 95%
    20:00 +22°C° 0 mm 0 mps 708 mmHg 96%
    21:00 +23°C° 0 mm 1 mps 709 mmHg 96%
    22:00 +23°C° 0 mm 1 mps 709 mmHg 97%
    23:00 +23°C° 0.8 mm 1 mps 709 mmHg 97%
    Mostrar más